Weather History for KIGM - April, 2013

Change the Weather History Date:

Monday, April 8, 2013

  Actual Average Record
Temperature  
Mean Temperature 55 °F 56 °F  
Max Temperature 65 °F 71 °F 91 °F (1989)
Min Temperature 48 °F 42 °F 29 °F (2010)
Degree Days  
Heating Degree Days 10 9  
Month to date heating degree days 31 79  
Since 1 July heating degree days 2756 2910  
Cooling Degree Days 0 1  
Month to date cooling degree days 0 1  
Year to date cooling degree days 6 4  
Growing Degree Days 5 (Base 50)    
Moisture  
Dew Point 31 °F    
Average Humidity 39    
Maximum Humidity 59    
Minimum Humidity 19    
Precipitation  
Precipitation 0.05 in 0.02 in 0.34 in (2011)
Month to date precipitation 0.05 0.13  
Year to date precipitation 1.18 3.05  
Sea Level Pressure  
Sea Level Pressure 29.44 in    
Wind  
Wind Speed 19 mph (WSW)    
Max Wind Speed 39 mph    
Max Gust Speed 48 mph    
Visibility 10 miles    
Events Rain    
T = Trace of Precipitation, MM = Missing Value Source: NWS Daily Summary

Daily Weather History Graph

Daily Weather History Graph

Search for Another Location

Airport or City:

Trip Planner

Search our weather history database for the weather conditions in past years. The results will help you decide how hot, cold, wet, or windy it might be!

Date:

Astronomy

Apr. 08, 2013 Rise Set
Actual Time 6:12 AM MST 7:03 PM MST
Civil Twilight 5:46 AM MST 7:28 PM MST
Nautical Twilight 5:15 AM MST 7:59 PM MST
Astronomical Twilight 4:44 AM MST 8:31 PM MST
Moon 5:01 AM MST (4/8) 5:43 PM MST (4/8)
Length of Visible Light 13h 42m
Length of Day
12h 50m
Waning Crescent, 3% of the Moon is Illuminated
Apr 8
Waning Crescent
Apr 10
New
Apr 18
First Quarter
Apr 25
Full
May 2
Last Quarter

Hourly Weather History & Observations

Time (MST) Temp. Dew Point Humidity Pressure Visibility Wind Dir Wind Speed Gust Speed Precip Events Conditions
12:51 AM 64.9 °F 30.9 °F 28% 29.48 in 10.0 mi South 16.1 mph - N/A   Clear
1:51 AM 64.9 °F 35.1 °F 33% 29.44 in 10.0 mi SSW 23.0 mph 31.1 mph N/A   Clear
2:51 AM 64.0 °F 35.1 °F 34% 29.41 in 10.0 mi SSW 26.5 mph 34.5 mph N/A   Clear
3:51 AM 62.1 °F 36.0 °F 38% 29.37 in 10.0 mi South 26.5 mph - N/A   Clear
4:51 AM 62.1 °F 30.9 °F 31% 29.32 in 10.0 mi South 20.7 mph 31.1 mph N/A   Clear
5:51 AM 60.1 °F 27.0 °F 28% 29.31 in 10.0 mi SW 18.4 mph - N/A   Clear
6:51 AM 57.9 °F 34.0 °F 41% 29.32 in 10.0 mi SW 20.7 mph - N/A   Clear
7:51 AM 60.1 °F 34.0 °F 38% 29.31 in 10.0 mi SSW 25.3 mph 38.0 mph N/A   Scattered Clouds
8:51 AM 60.1 °F 30.0 °F 32% 29.30 in 8.0 mi WSW 35.7 mph 43.7 mph N/A   Scattered Clouds
9:51 AM 59.0 °F 17.1 °F 20% 29.31 in 10.0 mi SW 31.1 mph 43.7 mph N/A   Scattered Clouds
10:51 AM 57.9 °F 24.1 °F 27% 29.34 in 10.0 mi WSW 27.6 mph 39.1 mph N/A   Partly Cloudy
11:51 AM 54.0 °F 28.9 °F 38% 29.36 in 10.0 mi West 24.2 mph 35.7 mph N/A   Overcast
12:51 PM 54.0 °F 27.0 °F 35% 29.36 in 10.0 mi SW 13.8 mph 25.3 mph N/A   Scattered Clouds
1:51 PM 61.0 °F 21.9 °F 22% 29.34 in 10.0 mi West 21.9 mph 33.4 mph N/A   Mostly Cloudy
2:51 PM 59.0 °F 21.9 °F 24% 29.33 in 10.0 mi SW 18.4 mph 26.5 mph N/A   Mostly Cloudy
3:51 PM 57.0 °F 21.9 °F 26% 29.36 in 10.0 mi WSW 27.6 mph 33.4 mph N/A   Overcast
4:00 PM 51.8 °F 35.6 °F 54% 29.52 in 6.0 mi WNW 26.5 mph 40.3 mph 0.00 in Rain Light Rain
4:51 PM 51.1 °F 37.0 °F 59% 29.38 in 10.0 mi South 17.3 mph - 0.00 in   Overcast
5:47 PM 50.0 °F 33.8 °F 54% 29.56 in 10.0 mi West 19.6 mph 27.6 mph 0.00 in   Overcast
5:51 PM 50.0 °F 35.1 °F 57% 29.44 in 10.0 mi West 18.4 mph 26.5 mph 0.00 in   Overcast
5:54 PM 50.0 °F 33.8 °F 54% 29.57 in 10.0 mi West 16.1 mph 26.5 mph N/A   Overcast
6:48 PM 48.2 °F 37.4 °F 66% 29.57 in 10.0 mi NNE 16.1 mph - 0.00 in Rain Light Rain
6:51 PM 48.0 °F 37.9 °F 68% 29.45 in 10.0 mi NNE 13.8 mph - 0.00 in Rain Light Rain
6:54 PM 48.2 °F 37.4 °F 66% 29.58 in 10.0 mi North 19.6 mph 24.2 mph 0.00 in Rain Light Rain
7:41 PM - - N/A% 29.59 in 4.0 mi WNW 5.8 mph - 0.04 in Rain Rain
7:48 PM - - N/A% 29.59 in 7.0 mi WSW 4.6 mph - 0.05 in Rain Light Rain
7:51 PM - - N/A% 29.59 in 8.0 mi WSW 5.8 mph - 0.05 in Rain Light Rain
8:51 PM - - N/A% 29.61 in 10.0 mi North 16.1 mph - 0.00 in Rain Light Rain
9:51 PM - - N/A% 29.59 in 10.0 mi NW 3.5 mph - N/A   Mostly Cloudy
10:51 PM - - N/A% 29.59 in 10.0 mi South 6.9 mph - N/A   Clear
11:51 PM - - N/A% 29.60 in 10.0 mi SE 4.6 mph - N/A   Overcast